RH
63 63 60 51 39 32 25 31 24 29 23 12 10 10 9 9 12 22 30 28 28 26 26 28 27 23 20 19 18 18 19 16 11 6 8 9 12 20 22 21 20 19 19 21 20 15 12 10 8
61 67 67 66 56 39 33 21 22 29 24 15 9 9 8 9 16 27 29 26 27 27 29 28 27 30 32 33 30 28 25 18 7 5 5 6 7 11 18 21 21 19 20 20 20 17 13 13 13
71 68 66 70 68 54 34 24 21 21 20 14 9 9 7 9 20 28 29 28 30 31 30 31 36 36 37 34 34 31 22 12 5 5 5 4 5 5 10 19 24 22 19 19 18 17 16 15 15
60 71 69 64 77 73 48 32 33 22 19 15 10 9 7 11 22 35 29 32 33 34 35 35 36 38 39 33 31 23 13 9 8 8 5 4 4 4 6 16 24 24 22 22 21 20 17 12 8
58 72 67 60 79 82 64 41 36 29 20 16 10 9 8 14 25 33 31 35 36 38 36 38 39 41 40 36 33 24 16 15 12 8 4 4 4 4 4 13 23 26 24 20 17 15 12 9 8
64 63 63 53 79 88 72 58 36 37 28 18 9 7 8 12 26 31 33 36 39 39 38 37 40 42 40 37 28 19 16 24 15 8 4 5 6 6 5 12 23 27 25 20 15 12 11 10 10
52 65 56 56 75 84 74 72 51 36 40 23 13 8 9 12 24 31 34 38 43 40 40 37 44 43 40 37 28 19 24 24 14 9 5 5 7 7 7 19 29 28 21 15 12 11 10 8 7
29 59 60 54 64 91 61 76 63 41 38 37 17 10 11 13 24 32 35 41 44 42 40 40 46 43 40 38 33 29 35 23 14 10 5 6 8 6 9 19 29 26 17 13 11 8 7 6 6
15 32 51 49 61 95 80 68 66 53 35 44 27 14 12 13 25 34 37 41 44 43 41 38 43 42 41 39 31 31 38 22 12 9 4 8 8 9 19 25 28 22 14 13 11 9 7 5 4
16 12 33 50 76 82 83 70 65 54 36 42 44 18 14 12 25 35 39 40 44 43 40 38 40 40 38 37 28 35 37 19 12 5 4 11 17 15 20 26 28 20 17 14 11 6 6 5 6
24 13 21 57 70 89 88 72 72 51 40 35 44 27 18 14 16 30 41 43 44 43 40 37 37 38 34 27 33 39 34 16 8 5 5 12 19 19 18 21 26 19 15 10 7 6 6 6 8
28 22 17 40 96 77 76 52 88 59 44 33 46 39 18 16 14 22 33 41 43 40 38 36 36 34 28 28 40 38 24 15 7 5 9 17 23 22 22 26 24 15 10 7 5 8 11 10 8
37 28 24 29 85 94 71 48 53 78 48 35 38 52 26 18 16 17 26 31 33 32 33 33 32 23 28 40 39 32 18 14 6 5 11 23 24 21 26 23 15 11 7 4 7 13 16 12 6
34 36 28 26 36 95 93 54 43 64 53 41 30 54 48 20 20 20 20 23 25 25 27 22 21 34 43 41 32 20 17 11 6 6 6 13 22 24 23 17 12 9 4 6 8 15 19 13 5
14 37 35 29 25 40 94 73 44 55 59 48 32 39 55 46 20 18 20 20 17 17 18 30 45 44 38 30 21 18 13 8 6 7 7 7 20 23 23 16 11 7 5 8 12 18 20 14 6
13 21 36 33 28 27 42 70 70 58 64 50 39 30 50 56 49 31 20 20 29 41 50 48 43 34 26 21 18 12 10 8 7 7 7 8 15 24 23 14 12 5 6 12 20 21 22 16 9
14 13 23 36 31 27 30 28 74 57 61 60 50 35 34 51 56 56 55 54 53 50 44 37 30 25 23 20 13 12 10 8 8 8 8 8 16 25 21 14 10 5 8 16 23 23 21 21 11
14 13 12 28 34 30 29 29 38 81 61 70 60 46 35 40 48 54 54 51 47 41 36 30 25 24 23 14 12 12 9 8 9 9 9 10 19 26 19 14 9 5 8 17 24 24 18 16 19
18 17 13 13 33 35 32 31 30 51 83 66 68 52 37 34 42 43 48 47 42 37 33 30 27 26 18 12 11 10 9 9 13 12 11 17 27 24 17 13 8 6 9 15 23 25 22 19 16
16 21 16 17 24 34 35 33 35 35 56 74 69 66 47 36 35 44 52 48 44 38 36 30 28 24 15 12 10 9 13 18 16 15 22 34 30 22 17 11 8 6 10 14 22 24 22 22 20
16 22 22 19 20 27 35 34 35 36 33 47 56 58 57 48 37 35 43 52 45 37 32 32 29 21 14 11 10 19 24 21 29 34 40 39 29 20 15 10 8 6 10 13 21 25 23 24 24
21 26 27 23 27 19 30 33 34 34 35 28 38 44 48 51 47 43 39 40 41 39 39 34 26 17 13 12 24 30 26 35 41 41 37 30 23 19 14 10 7 8 11 12 20 24 26 25 24
23 30 31 29 36 29 27 30 32 34 36 38 32 35 43 40 45 46 43 43 44 41 34 24 19 15 15 28 32 29 38 40 33 36 35 27 21 15 11 9 8 11 11 12 20 27 29 29 26
39 40 40 38 43 50 29 32 29 34 34 37 39 34 36 37 34 36 36 33 31 26 21 18 17 22 33 32 32 43 40 34 33 34 29 20 14 12 10 10 11 11 12 19 27 28 28 26 26
52 44 53 53 66 94 37 44 30 37 40 37 39 41 37 34 32 30 28 26 23 22 23 24 29 36 34 41 44 38 37 37 33 27 20 15 12 10 11 11 12 13 20 28 30 30 29 29 31
45 41 43 50 94 58 86 56 22 30 45 42 36 36 38 36 37 40 40 38 35 32 34 35 39 31 28 25 24 31 40 39 28 21 16 11 11 11 12 13 22 28 30 30 30 31 36 40 41
42 42 38 48 82 100 72 53 29 31 36 36 36 34 34 35 39 41 40 40 37 38 38 41 43 34 32 28 27 34 41 37 27 17 13 12 12 12 17 26 29 27 30 34 37 41 45 47 47
36 76 46 36 49 35 40 54 33 34 34 36 35 35 34 34 35 37 38 39 42 44 45 51 49 40 33 30 36 44 40 28 19 14 12 14 20 25 28 29 32 37 40 42 46 48 49 50 50
31 32 48 70 77 61 26 21 26 30 36 34 33 36 36 35 34 35 38 42 51 58 57 56 49 40 34 37 42 39 28 19 16 20 23 28 33 37 40 43 45 48 50 51 52 53 54 55 58
42 33 43 44 40 52 58 35 32 31 34 37 48 49 44 40 45 51 55 60 65 66 64 57 45 37 39 40 36 30 21 21 30 38 42 43 46 48 49 50 51 53 55 58 61 64 66 70 74
Wind_Speed
33 31 28 26 20 18 17 20 21 23 23 21 21 21 18 18 18 18 18 14 13 9 6 4 4 6 8 11 13 16 19 22 26 25 24 22 22 20 19 19 19 19 19 18 18 17 17 17 18
37 34 32 28 24 20 23 24 21 19 20 20 25 23 21 19 20 18 18 15 12 8 5 4 4 7 11 14 17 21 24 29 28 27 27 26 24 24 22 21 21 20 20 18 17 17 18 19 20
40 38 35 33 28 22 26 26 22 18 22 23 24 23 22 21 22 20 19 15 12 8 5 3 5 8 13 17 19 24 28 29 26 27 29 29 27 25 24 22 22 21 20 20 20 19 19 20 22
40 40 39 37 30 27 27 25 16 20 20 23 24 25 23 23 25 22 21 16 12 8 4 2 4 7 12 17 20 25 28 28 27 31 31 30 29 27 26 24 23 23 23 22 21 21 21 22 23
42 41 41 37 31 31 29 25 20 21 20 21 24 23 24 26 27 24 21 18 13 8 4 1 4 8 12 17 21 27 28 30 31 33 33 31 31 28 27 26 24 23 23 23 23 23 24 25 27
45 44 42 38 33 31 31 25 24 22 20 20 21 24 25 27 28 26 22 19 14 10 6 4 5 8 13 18 23 27 29 34 34 34 35 35 34 31 28 25 24 23 24 25 26 26 27 29 31
51 46 43 38 35 36 34 28 26 26 21 20 20 22 24 26 28 27 23 19 16 12 9 7 7 10 14 19 23 27 32 35 35 36 36 38 37 34 29 24 25 24 24 25 26 29 31 34 36
55 50 44 40 37 37 38 30 28 28 21 21 23 22 23 26 29 27 25 21 18 14 12 10 10 12 15 20 25 29 33 36 37 39 37 39 36 32 26 25 27 28 27 27 29 32 36 38 40
58 57 48 42 39 41 39 32 31 27 25 25 21 21 26 27 30 29 27 24 21 17 15 13 14 16 19 22 25 28 34 37 37 39 37 38 32 29 27 27 28 28 28 30 33 36 38 39 39
59 58 50 43 38 43 40 37 33 29 27 25 24 22 26 27 29 29 28 27 24 20 19 18 18 19 22 26 26 30 35 37 39 38 37 33 31 27 27 28 28 29 31 33 36 36 37 36 35
61 60 52 46 42 45 43 44 32 31 28 26 25 25 25 27 30 32 29 29 27 24 22 21 22 22 22 25 27 32 36 37 38 36 36 32 32 32 31 31 31 31 33 36 37 34 33 29 30
63 60 55 51 45 49 47 43 35 32 31 28 26 25 27 30 32 33 33 33 30 28 26 26 25 26 26 26 28 33 36 38 36 35 35 31 31 32 31 29 29 32 37 40 36 33 31 28 28
65 61 56 54 50 49 50 45 39 34 31 29 29 25 26 29 30 32 33 32 32 29 28 27 28 26 25 28 32 35 36 39 35 34 34 32 33 34 31 29 31 35 40 35 31 32 31 27 26
65 62 58 57 59 51 51 48 41 37 34 31 29 27 27 27 29 29 30 30 30 27 28 26 25 25 27 31 35 36 39 39 35 35 35 34 34 35 31 31 34 37 34 29 31 32 30 26 25
64 65 63 60 60 61 51 50 45 38 35 32 31 30 28 27 27 29 29 28 27 25 25 24 25 27 30 34 35 39 41 36 36 37 37 35 34 35 32 32 35 37 31 32 32 29 27 25 22
60 66 65 63 62 63 61 51 44 41 38 35 33 32 31 29 28 26 27 26 25 23 24 25 28 30 31 35 38 39 37 36 36 38 38 37 34 34 31 32 36 34 31 31 29 27 25 24 20
57 63 65 63 64 63 59 58 47 43 42 37 35 33 33 32 31 28 28 26 26 25 27 28 30 32 34 38 39 38 39 38 38 40 40 38 35 33 31 33 37 31 30 29 27 24 23 23 19
53 53 59 62 64 64 59 57 53 47 45 42 38 35 34 34 34 32 30 29 29 29 30 29 32 34 38 39 40 40 41 41 41 41 41 38 35 32 31 34 36 31 29 28 26 21 20 20 19
47 52 54 59 63 63 59 57 55 53 47 45 41 38 37 36 36 34 31 32 32 32 31 32 35 38 40 41 42 43 43 43 43 41 40 37 35 33 33 34 34 31 29 28 26 22 20 20 20
45 51 54 57 61 62 60 59 55 56 53 47 44 43 40 38 36 34 34 34 35 34 34 36 39 42 43 43 45 44 44 44 42 41 38 35 35 35 35 34 34 31 29 28 27 25 22 22 22
43 49 51 53 58 60 60 62 59 55 53 53 49 46 44 41 38 36 35 36 36 37 38 39 42 45 45 46 46 44 44 43 39 36 35 36 36 37 36 35 36 33 31 29 28 28 26 25 26
42 47 50 52 54 61 60 63 61 56 52 52 50 48 49 46 42 39 38 38 38 39 42 44 46 48 47 47 45 44 43 39 35 35 37 38 38 38 38 36 36 34 33 32 31 29 28 29 30
34 43 47 47 46 54 57 61 60 58 54 52 50 48 45 49 49 46 45 44 44 45 47 49 49 48 47 45 44 43 38 36 38 39 39 39 40 39 39 37 36 35 35 35 34 33 32 32 33
31 39 42 41 44 51 54 57 60 58 54 51 50 46 45 45 48 49 49 49 49 49 50 48 48 47 44 42 42 39 39 39 40 40 40 41 40 40 40 37 37 37 36 36 38 37 37 37 36
30 36 38 37 41 50 54 54 57 54 50 49 47 44 45 44 45 46 47 47 47 48 47 47 46 42 39 39 39 41 42 43 43 43 43 43 43 42 41 38 39 39 39 39 39 40 41 42 40
29 32 37 43 35 41 47 55 55 54 46 43 45 45 44 45 44 45 45 46 47 47 47 45 43 40 39 40 41 44 45 45 45 45 45 45 43 42 41 40 41 42 44 44 43 44 44 44 43
22 24 30 33 39 38 47 51 51 50 47 43 41 43 43 43 45 45 47 49 50 49 48 47 45 43 43 45 46 46 47 47 47 46 46 45 44 44 44 45 45 45 47 48 47 47 48 48 48
21 22 30 35 39 45 46 48 47 46 45 43 42 43 45 47 47 47 47 48 49 49 49 48 48 48 47 48 49 49 49 48 47 46 46 47 47 48 49 49 49 50 50 51 52 52 52 52 53
18 24 30 33 34 34 38 43 42 44 45 43 43 45 47 48 50 50 50 49 48 47 48 48 49 49 50 51 52 51 51 50 49 49 49 50 51 51 52 52 53 54 55 55 56 56 56 56 57
17 21 26 30 35 36 35 37 39 41 43 43 42 44 46 49 49 47 46 46 46 48 49 49 50 51 52 53 53 53 52 51 51 51 52 53 54 55 55 56 57 58 59 59 59 59 59 59 60
Wind_Direction
220 223 223 223 215 212 214 219 220 212 204 190 198 198 198 190 187 173 176 168 157 146 127 94 66 39 21 12 6 2 2 1 358 356 354 350 352 348 344 339 331 324 316 311 309 308 304 302 303
220 222 226 226 220 216 223 218 223 215 210 205 203 197 197 193 184 181 173 172 159 149 127 102 66 23 9 2 358 357 359 358 357 0 0 354 346 344 344 340 336 329 321 315 311 307 306 304 303
219 221 224 227 224 220 228 225 223 210 215 210 205 198 196 193 188 185 176 177 169 155 133 110 24 7 359 354 353 354 354 352 353 356 358 357 349 341 338 335 332 329 326 321 318 316 312 307 305
224 222 222 226 224 222 229 229 228 227 222 216 210 203 199 192 195 191 182 180 182 164 148 67 10 355 351 349 347 350 350 347 348 352 350 348 349 343 339 334 330 327 324 319 315 310 308 307 305
219 223 224 224 223 226 228 232 225 230 227 225 216 208 201 198 197 194 188 184 190 189 181 253 334 334 342 345 345 345 343 345 348 349 348 345 345 341 338 337 332 326 321 317 315 311 308 305 304
221 220 224 222 221 226 226 231 225 232 230 232 221 215 206 203 201 197 193 194 197 204 219 254 306 323 333 338 340 340 339 344 344 344 346 344 342 337 333 337 334 326 318 314 312 310 309 309 309
219 220 220 221 220 224 225 221 229 229 228 232 224 222 214 207 207 203 197 200 209 218 234 256 286 309 322 329 332 336 339 339 338 340 341 341 337 334 331 337 331 322 316 313 314 314 314 312 311
219 220 217 216 219 226 229 217 223 228 225 233 225 218 222 211 211 209 203 205 218 230 241 255 279 298 312 321 324 329 332 333 333 336 337 337 336 335 334 334 330 323 318 319 320 318 318 317 315
220 219 215 214 218 227 228 221 224 225 222 225 225 219 223 215 213 213 212 213 224 236 246 257 274 290 305 312 318 325 327 329 329 331 334 336 338 337 336 331 327 322 320 321 321 321 319 321 319
221 220 215 214 217 229 229 224 221 223 223 226 228 227 226 219 217 217 219 221 227 235 251 264 274 284 301 310 314 318 322 324 326 327 330 332 334 331 327 327 326 322 322 320 318 318 320 323 325
220 220 215 213 218 226 228 227 224 224 223 222 223 230 228 224 221 222 223 227 233 243 252 257 268 278 288 295 306 313 318 320 323 325 327 326 329 325 320 322 324 321 318 315 316 316 317 320 320
222 220 216 212 218 226 227 225 222 224 223 220 224 223 223 225 225 225 226 230 236 245 252 260 268 278 286 294 303 307 312 316 319 323 328 325 332 329 323 319 320 316 316 318 318 316 316 315 320
222 222 219 215 217 225 229 229 221 225 225 224 221 228 224 227 228 230 233 235 240 246 251 259 268 274 284 293 299 304 307 312 315 321 325 325 329 331 329 324 319 319 321 325 326 325 325 319 324
221 220 220 218 216 221 228 226 226 226 226 228 223 223 228 228 228 229 232 235 240 244 253 257 266 276 285 292 297 301 305 307 309 316 321 320 322 327 325 319 318 322 323 326 327 326 329 324 329
221 221 220 217 218 221 225 225 221 227 227 228 227 222 226 228 228 229 231 233 236 242 250 259 268 277 286 291 297 302 304 302 306 313 316 317 317 322 317 314 318 322 318 325 326 324 327 327 328
220 222 221 218 219 220 223 226 222 224 226 226 229 225 224 227 227 227 232 233 237 243 252 261 270 278 284 291 298 301 300 301 306 310 314 315 313 316 312 311 315 318 318 325 326 325 327 328 323
220 222 221 221 221 225 223 227 225 224 227 226 228 230 227 227 230 229 232 234 241 247 254 262 270 278 286 294 297 297 299 302 306 307 310 312 309 309 308 310 313 312 315 320 322 325 327 328 321
222 223 224 222 225 226 225 226 223 225 227 228 229 228 229 230 231 232 235 240 244 250 256 264 271 280 290 294 296 295 299 302 304 305 305 306 303 302 303 305 311 307 310 314 316 316 321 324 326
221 218 221 222 223 228 227 229 226 225 227 228 230 232 230 230 232 236 235 242 247 252 260 267 275 283 290 293 294 295 298 300 302 302 301 303 298 297 298 302 306 304 307 308 310 308 309 314 316
219 218 216 217 219 224 225 227 227 228 228 231 229 233 233 233 233 233 238 242 249 256 264 271 278 286 290 291 291 294 297 299 300 300 300 296 296 297 297 301 304 301 303 303 304 301 302 306 307
218 218 217 215 219 220 222 225 227 227 227 229 231 232 236 236 235 236 239 245 252 258 264 272 279 284 287 287 290 294 296 299 299 295 292 291 292 294 297 300 301 297 297 297 298 296 296 302 305
222 218 216 216 219 219 219 224 227 226 230 231 230 233 237 238 240 239 241 245 253 260 267 273 278 283 284 286 292 293 294 295 291 290 291 294 295 296 296 298 300 294 295 294 296 294 295 298 302
224 219 219 219 217 220 219 223 225 227 227 231 233 231 237 243 243 246 247 249 254 260 267 272 277 280 283 287 288 289 289 289 291 292 293 292 293 295 296 298 294 293 296 295 296 293 293 296 298
219 217 218 219 215 219 219 223 225 228 229 232 234 235 236 240 246 252 255 257 260 264 268 272 275 279 283 283 284 285 286 288 289 290 290 290 292 293 295 294 292 293 294 295 294 292 291 293 294
215 214 216 213 221 214 217 220 224 227 231 232 235 237 239 243 245 248 253 258 261 264 267 270 273 277 277 278 280 283 285 288 288 288 288 290 292 293 293 293 292 293 292 290 290 291 292 293 293
205 206 219 213 224 221 217 222 223 227 228 232 234 237 238 241 246 251 254 257 260 262 266 269 271 270 275 279 283 284 286 287 287 286 288 289 291 290 290 290 290 291 290 289 290 290 291 291 291
194 205 222 227 218 220 221 223 224 228 231 232 234 239 243 245 248 251 255 259 262 265 267 268 266 270 277 280 281 283 284 285 285 286 287 288 288 287 287 288 288 287 288 289 288 288 289 289 290
203 207 217 225 228 229 226 225 226 226 232 234 235 237 242 246 249 252 254 257 261 263 265 266 267 272 275 277 280 283 283 283 284 284 284 285 285 286 286 287 288 289 288 288 288 288 288 289 290
225 224 222 217 221 228 230 229 226 226 228 231 234 239 242 246 249 252 254 257 260 262 264 266 268 270 272 276 279 281 282 282 281 282 283 284 285 286 286 287 288 288 288 288 288 288 288 287 287
228 227 229 230 225 226 225 228 229 228 231 235 239 241 241 244 249 253 257 259 260 261 263 266 268 270 273 276 279 280 279 280 281 282 283 285 286 287 287 288 287 286 286 286 286 285 285 286 286